Regional Weather Roundup
Issued by NWS

Home | Current Version | Previous Version | Graphics & Text | Print | Product List | Glossary On
Versions: 1 2 3 4 5 6 7 8 9 10 11 12 13 14 15 16 17 18 19 20 21 22 23 24 25 26 27 28 29 30 31 32 33 34 35 36 37 38 39 40 41 42 43 44 45 46 47 48 49 50
653
ASUS43 KLSX 250557
RWRMO

WEATHER SUMMARY FOR MISSOURI
NATIONAL WEATHER SERVICE SPRINGFIELD MO
100 AM CDT FRI MAY 25 2018

NOTE: "FAIR" INDICATES FEW OR NO CLOUDS BELOW 12,000 FEET WITH NO
       SIGNIFICANT WEATHER AND/OR OBSTRUCTIONS TO VISIBILITY.
       CURRENT SKY AND/OR WEATHER CONDITIONS ARE NOT AVAILABLE FOR
       CHILLICOTHE AND FARMINGTON.

MOZ001>031-035>038-043-044-053-054-250700-
...NORTHERN AND WESTERN MISSOURI...

CITY           SKY/WX    TMP DP  RH WIND       PRES   REMARKS
KANSAS CTY INT LGT RAIN  68  65  90 SE9       29.98F
6HR MIN TEMP:  67; 6HR MAX TEMP:  71; 6HR PCP:  0.06;

KANSAS C DTWN  CLOUDY    72  63  73 S5        29.98F
6HR MIN TEMP:  71; 6HR MAX TEMP:  74; 6HR PCP: TRACE;

LEE`S SUMMIT   CLOUDY    68  65  90 SW5       30.00F
6HR MIN TEMP:  68; 6HR MAX TEMP:  80; 6HR PCP:  0.03;

ST JOSEPH      CLOUDY    71  65  81 S9        29.96F
6HR MIN TEMP:  71; 6HR MAX TEMP:  78;

CHILLICOTHE      N/A     72  65  78 CALM      30.00R
6HR MIN TEMP:  72; 6HR MAX TEMP:  84;


$$
MOZ066>068-077>081-088>096-101>105-250700-
...SOUTHWEST MISSOURI...

CITY           SKY/WX    TMP DP  RH WIND       PRES   REMARKS
SPRINGFIELD    PTCLDY    70  66  87 S3        30.03F
6HR MIN TEMP:  70; 6HR MAX TEMP:  79;

JOPLIN         CLOUDY    71  66  84 E6        30.03F
6HR MIN TEMP:  70; 6HR MAX TEMP:  77; 6HR PCP:  0.01;


$$
MOZ032>034-039>042-045>050-055>058-069>072-250700-
...CENTRAL MISSOURI...

CITY           SKY/WX    TMP DP  RH WIND       PRES   REMARKS
COLUMBIA       CLOUDY    72  68  87 SE6       30.00F
6HR MIN TEMP:  71; 6HR MAX TEMP:  79; 6HR PCP: TRACE;

JEFFERSON CITY PTCLDY    72  68  87 SE3       30.00S
6HR MIN TEMP:  71; 6HR MAX TEMP:  83;

ROLLA          CLEAR     68  64  87 S7        30.04F
6HR MIN TEMP:  68; 6HR MAX TEMP:  82;

SEDALIA        CLOUDY    70  67  90 S5        30.01F
6HR MIN TEMP:  69; 6HR MAX TEMP:  77;

WARRENSBURG      N/A     66  63  88 CALM      30.01R

$$
MOZ051-052-059>065-250700-
...EAST CENTRAL MISSOURI...

CITY           SKY/WX    TMP DP  RH WIND       PRES   REMARKS
ST LOUIS INTL  PTCLDY    78  61  55 S7        30.03S
6HR MIN TEMP:  77; 6HR MAX TEMP:  85;


$$
MOZ072>076-082>087-097>100-106>115-250700-
...SOUTH CENTRAL AND SOUTHEAST MISSOURI...

CITY           SKY/WX    TMP DP  RH WIND       PRES   REMARKS
CAPE GIRARDEAU FAIR      72  65  78 CALM      30.02F
6HR MIN TEMP:  71; 6HR MAX TEMP:  83;

POPLAR BLUFF   FAIR      73  72  96 N3        30.01F
6HR MIN TEMP:  72; 6HR MAX TEMP:  83;

WEST PLAINS    CLOUDY    69  67  93 SW3       30.05F
6HR MIN TEMP:  69; 6HR MAX TEMP:  77;


$$




USA.gov is the U.S. government's official web portal to all federal, state and local government web resources and services.